Probability
29 29 29 29 19 19 16 16 10 10 10 6 10 6 3 3 0 0 0 0 0 0 0 0 0 0 0 0 0 0 0 0 0 0 0 0 0 0
29 23 26 29 26 19 19 19 13 13 10 10 10 6 3 3 0 0 0 0 0 0 0 0 0 0 0 0 0 0 0 0 0 0 0 0 0 0
29 29 26 19 23 23 19 19 13 3 10 6 6 3 3 3 0 0 0 0 0 0 0 0 0 0 0 0 0 0 0 0 0 0 0 0 0 0
29 26 26 19 19 19 23 19 19 6 10 10 6 3 0 3 0 0 0 0 0 0 0 0 0 0 0 0 0 0 0 0 0 0 0 0 0 0
26 26 26 23 19 19 23 23 23 13 10 6 3 3 0 0 0 0 0 0 0 0 0 0 0 0 0 0 0 0 0 0 0 0 0 0 0 0
26 26 26 19 19 23 19 19 19 13 6 3 6 3 0 0 0 0 0 0 0 0 0 0 0 0 0 0 0 0 0 0 0 0 0 0 0 0
26 26 26 23 16 16 13 16 13 13 13 6 6 3 0 0 0 3 0 0 0 0 0 0 0 0 0 0 0 0 0 0 0 0 0 0 0 0
26 26 23 23 16 10 10 6 13 13 13 13 13 13 10 0 3 3 0 0 0 0 0 0 0 0 0 0 0 0 0 0 0 0 0 0 0 0
26 26 23 19 10 16 10 10 6 6 6 13 13 13 10 3 0 3 0 0 0 0 0 0 0 0 0 0 0 0 0 0 0 0 0 0 0 0
23 19 19 19 13 13 13 10 10 10 10 13 13 10 10 6 3 3 3 0 0 0 0 0 0 0 0 0 0 0 0 0 0 0 0 0 0 0
19 23 19 19 10 0 6 6 10 6 3 3 3 6 0 0 0 0 0 0 0 0 0 0 0 0 0 0 0 0 0 0 0 0 0 0 0 0
16 16 10 10 6 0 3 10 10 10 10 3 3 3 3 0 0 0 3 3 3 0 0 0 0 0 0 0 0 0 0 0 0 0 0 0 0 0
13 13 13 3 0 0 0 3 6 6 6 6 3 0 6 3 3 0 0 3 3 3 0 0 0 0 0 0 0 0 0 0 0 0 0 0 0 0
13 13 13 3 0 0 0 0 0 0 0 3 3 3 0 0 3 3 3 0 3 3 0 0 0 0 0 0 0 0 0 0 0 0 0 0 0 0
6 10 10 0 0 0 0 0 0 0 0 0 3 3 3 0 0 3 3 3 3 3 0 0 0 0 0 0 0 0 0 0 0 0 0 0 0 0
0 0 0 0 0 0 0 0 0 0 0 3 3 6 6 0 0 0 0 3 3 0 3 0 0 0 0 0 0 0 0 0 0 0 0 0 0 0
0 0 0 0 0 0 0 0 0 0 0 3 3 3 6 3 0 0 0 0 0 0 0 3 3 0 0 0 0 0 0 0 0 0 0 0 0 0
0 0 0 3 3 3 3 3 3 3 3 3 3 3 3 0 3 0 0 0 0 0 0 3 3 0 0 0 0 0 0 0 0 0 0 0 0 0
0 0 0 0 0 3 3 3 3 3 3 3 3 3 3 3 0 0 0 0 0 0 0 0 0 0 0 0 0 0 0 0 0 0 0 0 0 0
0 0 0 0 0 0 3 3 3 3 3 3 3 3 3 3 0 0 0 0 0 0 0 0 0 0 0 0 0 0 0 0 0 0 0 0 0 0
0 0 0 0 0 0 0 3 3 3 3 3 3 3 3 0 0 0 0 0 0 3 0 0 0 0 0 0 0 0 0 0 0 0 0 0 0 0
0 0 0 0 0 0 0 3 6 3 3 3 3 3 0 0 0 0 0 0 0 0 3 3 3 0 0 0 0 0 0 0 0 0 0 0 0 0
0 0 0 0 0 0 0 0 3 6 6 3 3 0 0 0 0 0 0 0 0 0 0 0 3 0 0 0 0 0 0 0 0 0 0 0 0 0
Height
5877 5876 5875 5874 5873 5872 5871 5869 5868 5867 5865 5863 5861 5859 5857 5855 5853 5852 5850 5848 5846 5844 5841 5839 5836 5834 5831 5829 5827 5825 5823 5821 5820 5818 5817 5816 5815 5814
5874 5873 5872 5871 5870 5869 5867 5866 5865 5863 5862 5860 5858 5856 5854 5852 5850 5848 5846 5844 5842 5839 5837 5835 5832 5829 5827 5824 5822 5820 5818 5816 5815 5813 5811 5810 5809 5808
5871 5870 5869 5868 5867 5865 5864 5863 5861 5860 5858 5856 5854 5852 5850 5848 5846 5844 5842 5839 5837 5835 5832 5830 5827 5825 5822 5820 5817 5815 5813 5811 5809 5807 5806 5804 5802 5801
5868 5867 5866 5865 5863 5862 5861 5859 5858 5856 5854 5852 5850 5848 5846 5844 5842 5839 5837 5835 5833 5830 5828 5825 5823 5820 5817 5815 5812 5810 5808 5805 5803 5801 5800 5798 5796 5795
5864 5863 5862 5861 5859 5858 5856 5855 5853 5851 5849 5848 5846 5844 5841 5839 5837 5835 5832 5830 5828 5826 5823 5820 5818 5815 5812 5810 5807 5804 5802 5800 5798 5795 5793 5791 5790 5788
5860 5859 5858 5856 5855 5853 5852 5850 5848 5846 5845 5843 5841 5839 5836 5834 5832 5829 5827 5825 5823 5820 5818 5815 5813 5810 5807 5804 5802 5799 5796 5794 5792 5789 5787 5785 5783 5781
5856 5854 5853 5852 5850 5848 5847 5845 5843 5841 5839 5838 5836 5833 5831 5828 5826 5824 5822 5819 5817 5815 5812 5810 5807 5804 5801 5798 5796 5793 5790 5788 5785 5783 5781 5778 5776 5774
5851 5850 5848 5847 5845 5843 5841 5839 5837 5835 5834 5832 5830 5828 5825 5823 5820 5818 5816 5814 5811 5809 5806 5804 5801 5798 5795 5792 5789 5787 5784 5782 5779 5777 5774 5772 5769 5767
5846 5844 5843 5841 5839 5837 5835 5833 5831 5829 5827 5825 5823 5821 5819 5816 5814 5811 5809 5807 5805 5802 5800 5797 5794 5791 5788 5785 5783 5780 5777 5775 5772 5770 5767 5765 5762 5760
5840 5838 5837 5835 5833 5831 5829 5827 5825 5822 5820 5818 5816 5814 5811 5809 5806 5804 5802 5800 5798 5795 5792 5790 5787 5784 5781 5778 5775 5773 5770 5768 5765 5763 5760 5758 5755 5753
5833 5831 5830 5828 5826 5824 5822 5820 5817 5815 5812 5810 5808 5806 5803 5801 5799 5797 5795 5793 5790 5788 5785 5782 5779 5776 5774 5770 5767 5765 5762 5760 5757 5755 5752 5750 5748 5745
5826 5824 5822 5820 5818 5815 5813 5811 5809 5807 5804 5801 5800 5798 5795 5793 5791 5788 5787 5784 5782 5780 5777 5774 5771 5768 5765 5763 5759 5757 5754 5752 5749 5747 5745 5742 5740 5737
5819 5817 5814 5812 5809 5807 5805 5802 5800 5797 5795 5793 5791 5789 5787 5785 5782 5780 5778 5776 5774 5771 5769 5766 5763 5760 5757 5754 5751 5748 5746 5743 5741 5739 5736 5734 5731 5729
5811 5808 5806 5803 5801 5798 5795 5793 5791 5788 5786 5784 5782 5780 5778 5776 5774 5771 5769 5767 5765 5762 5759 5756 5754 5751 5748 5745 5743 5740 5737 5735 5732 5730 5727 5725 5723 5720
5802 5800 5797 5795 5792 5789 5787 5784 5781 5779 5777 5775 5773 5771 5769 5767 5765 5763 5760 5758 5755 5752 5750 5747 5744 5742 5739 5737 5734 5732 5729 5726 5723 5721 5718 5716 5714 5712
5793 5791 5788 5786 5783 5780 5778 5775 5772 5770 5768 5766 5764 5762 5760 5758 5756 5753 5751 5749 5746 5743 5740 5737 5735 5732 5730 5728 5725 5723 5720 5718 5715 5712 5710 5707 5705 5703
5783 5782 5779 5777 5774 5771 5769 5766 5764 5761 5759 5757 5755 5753 5751 5749 5747 5744 5741 5739 5736 5734 5731 5728 5725 5723 5720 5718 5716 5713 5711 5709 5706 5704 5701 5699 5696 5694
5774 5772 5770 5767 5765 5762 5760 5758 5755 5753 5750 5748 5746 5744 5742 5740 5737 5735 5732 5729 5726 5724 5722 5719 5716 5713 5711 5709 5707 5704 5702 5699 5697 5694 5692 5690 5688 5685
5765 5763 5760 5758 5756 5753 5751 5749 5746 5744 5741 5739 5737 5734 5732 5730 5727 5725 5722 5720 5717 5714 5711 5709 5706 5703 5701 5700 5698 5695 5693 5690 5688 5685 5683 5681 5679 5677
5755 5753 5750 5748 5746 5744 5742 5739 5737 5734 5732 5730 5727 5725 5722 5719 5717 5714 5712 5709 5707 5704 5701 5698 5696 5694 5692 5690 5688 5685 5683 5681 5679 5676 5674 5672 5670 5668
5745 5742 5740 5738 5736 5734 5732 5729 5727 5725 5722 5720 5718 5715 5712 5709 5707 5704 5701 5699 5696 5694 5691 5689 5686 5684 5682 5680 5678 5676 5674 5672 5669 5668 5666 5664 5662 5659
5734 5732 5730 5728 5726 5724 5721 5719 5717 5715 5713 5710 5708 5705 5702 5699 5696 5693 5691 5688 5686 5684 5681 5679 5677 5674 5672 5671 5669 5667 5665 5663 5660 5658 5657 5655 5653 5651
5723 5721 5719 5717 5715 5713 5711 5708 5706 5704 5702 5700 5698 5695 5693 5690 5687 5684 5681 5679 5676 5674 5672 5669 5667 5665 5663 5661 5660 5658 5656 5654 5652 5650 5649 5647 5645 5643
Wind_Speed
10 10 11 11 12 12 12 13 14 14 15 16 16 17 17 17 17 18 18 18 19 19 20 20 20 20 20 20 20 20 20 21 21 21 22 22 22 22
11 11 12 12 13 13 13 14 15 15 16 16 17 18 18 18 18 19 19 19 19 20 20 21 21 21 21 20 20 20 20 20 21 21 21 22 23 23
12 12 13 14 14 14 14 15 15 16 17 17 17 18 18 19 19 20 20 20 20 20 20 21 21 21 21 20 20 21 21 22 22 22 22 23 23 23
13 13 13 14 15 16 16 16 17 17 17 18 18 18 19 20 20 20 20 20 20 20 21 21 22 22 21 21 21 22 22 22 23 23 23 23 24 24
14 15 15 16 16 17 17 17 18 18 18 19 19 19 20 20 21 21 21 21 21 21 22 22 22 22 22 23 22 22 23 23 24 24 24 24 24 25
16 17 17 17 17 18 18 19 20 20 19 20 21 21 21 21 21 21 22 22 22 22 23 23 23 24 23 23 23 23 23 24 24 24 24 24 25 25
18 18 18 18 19 19 20 20 21 21 21 22 22 22 22 23 22 23 23 23 23 24 24 24 25 25 24 24 24 25 25 25 24 25 25 25 26 25
19 19 19 20 21 21 21 22 22 23 24 24 24 24 24 24 24 25 25 25 25 25 26 26 26 26 26 26 26 26 26 26 26 26 26 26 27 27
21 21 21 22 22 23 23 24 24 25 25 26 26 26 26 26 26 26 26 26 27 26 27 27 27 28 27 27 27 27 27 27 26 26 27 27 27 27
23 23 24 24 24 25 26 26 27 27 28 28 28 28 28 28 27 28 28 28 29 28 28 28 28 28 28 28 28 28 28 28 27 27 27 28 28 28
25 25 25 26 27 28 29 29 29 30 31 31 31 30 29 29 30 30 30 30 30 29 30 30 30 29 29 30 29 29 29 28 28 28 28 28 29 29
27 27 27 28 29 29 30 31 31 32 32 32 31 30 31 31 31 32 32 32 31 31 30 31 31 30 30 30 30 30 29 29 29 29 29 29 29 30
29 30 30 30 30 31 31 31 32 32 32 32 32 31 31 32 32 32 32 32 32 32 32 32 31 32 32 32 31 31 31 31 31 30 30 30 30 30
31 31 31 32 32 32 32 32 32 33 32 32 31 32 31 32 32 33 33 33 33 33 33 33 33 32 32 32 31 31 32 31 31 31 30 30 30 30
32 32 32 33 33 33 33 33 33 33 33 32 31 32 32 32 33 33 34 34 34 34 33 33 33 32 32 32 32 31 31 31 31 31 30 29 29 30
33 33 33 33 34 34 34 33 34 34 34 34 33 33 33 32 32 33 34 34 34 33 33 33 33 33 32 32 32 31 31 31 30 30 30 30 30 30
34 33 32 33 33 33 33 33 33 34 34 34 34 34 33 33 33 33 34 35 34 34 34 34 33 33 32 32 32 31 31 31 30 31 31 30 30 31
33 33 33 33 33 33 33 33 34 34 34 34 34 34 33 33 33 34 35 35 35 34 34 34 33 33 32 31 31 31 31 32 32 31 31 30 30 30
34 33 34 34 34 34 34 34 34 34 34 34 35 34 34 34 35 35 34 35 34 34 34 33 33 32 32 32 31 31 31 31 32 31 30 30 29 29
35 34 34 35 35 35 35 35 34 34 34 34 35 35 35 35 35 35 35 35 34 34 34 33 33 33 33 32 32 31 32 31 31 30 29 28 28 28
36 35 35 35 35 35 35 35 35 34 34 34 34 35 36 36 35 35 35 35 34 35 34 32 32 32 32 32 31 31 31 31 30 29 28 27 27 27
37 36 36 36 36 36 36 36 36 35 35 35 35 36 36 36 35 35 35 35 34 33 33 32 31 31 31 30 30 30 30 30 28 27 27 27 27 27
37 37 37 36 37 37 37 36 36 36 35 35 35 35 35 34 34 34 33 33 32 32 32 31 31 31 30 30 30 30 29 28 26 27 27 27 27 26
Wind_Direction
303 304 303 303 304 307 308 311 313 314 314 313 311 311 310 310 310 310 310 309 308 308 309 308 307 305 304 302 301 298 296 291 287 285 285 282 283 284
305 302 302 305 307 306 307 309 312 313 314 311 311 310 311 311 310 309 310 308 306 308 309 309 308 306 304 302 301 299 298 296 293 290 286 284 284 283
308 303 301 302 305 305 304 306 309 310 312 312 310 311 310 309 308 308 308 309 309 310 311 310 309 307 306 304 300 299 299 298 294 292 288 287 285 284
305 303 301 301 302 302 301 303 305 306 307 309 308 307 308 307 306 306 306 309 309 309 310 311 310 309 308 305 303 301 299 298 297 294 292 290 288 286
301 300 299 300 301 302 300 300 302 303 305 306 305 305 305 305 304 304 304 304 306 306 307 308 309 310 309 306 305 304 302 300 299 297 294 292 290 287
300 299 296 297 298 300 301 301 301 301 302 304 305 304 303 303 302 303 303 303 304 303 303 305 307 309 308 306 304 304 303 302 301 300 297 294 292 289
300 302 300 298 298 299 301 301 300 298 300 302 303 302 301 301 301 301 301 301 301 301 302 304 306 306 306 304 302 302 301 301 300 300 299 297 293 290
297 299 300 297 297 297 298 299 299 298 298 299 300 300 300 301 301 301 301 301 300 299 299 300 302 303 303 304 302 301 300 300 299 299 299 298 295 291
294 295 297 296 294 295 297 298 298 298 299 299 297 297 297 298 299 299 299 301 301 299 298 299 300 301 302 301 301 301 301 300 299 299 299 298 296 294
294 295 295 293 294 296 296 297 297 296 296 297 296 295 296 296 297 298 298 298 298 299 298 298 298 299 300 301 301 300 299 299 299 300 300 299 297 295
294 296 296 296 296 296 295 295 295 295 295 294 293 294 294 295 295 295 296 297 297 297 298 298 298 298 297 299 299 299 298 299 298 299 300 300 299 297
293 294 295 295 295 295 294 294 294 294 293 293 293 292 292 292 293 293 295 296 295 296 297 298 298 298 297 297 297 297 296 297 298 298 299 299 298 298
293 293 294 294 294 294 295 294 294 294 293 292 291 291 291 291 292 292 293 294 296 296 296 296 296 297 299 298 296 295 295 297 298 298 298 299 298 297
293 294 294 294 294 295 296 295 294 294 294 291 290 291 292 292 292 292 292 294 295 295 295 295 295 296 298 299 297 297 295 296 297 298 298 298 298 297
292 292 293 294 295 295 295 294 293 293 293 291 290 291 292 293 292 292 292 293 294 294 294 294 295 295 296 297 297 297 296 295 296 297 298 298 299 298
290 291 291 291 293 294 294 294 293 292 292 290 290 292 293 294 294 293 293 294 294 294 294 294 294 295 295 295 294 295 296 295 294 296 297 297 297 296
289 291 291 292 294 294 294 294 293 291 292 291 292 293 294 294 294 293 293 293 293 293 294 294 294 294 294 293 294 295 297 296 295 295 296 296 296 297
290 291 292 292 293 293 293 293 292 292 292 291 293 294 294 294 294 294 294 295 295 294 294 292 293 293 293 292 293 294 296 296 296 295 295 295 296 296
290 291 290 290 291 291 291 292 291 291 291 292 292 294 294 293 293 293 293 295 295 295 294 292 292 292 292 293 294 294 296 296 296 295 295 296 295 293
290 290 290 289 290 289 290 291 291 291 291 292 293 294 294 293 293 293 293 294 294 295 293 292 292 292 292 293 294 294 294 295 296 296 295 295 294 292
289 289 289 288 289 288 289 289 290 291 291 292 293 294 294 294 294 293 293 293 293 294 294 292 291 292 292 293 293 293 294 294 294 295 295 294 294 294
287 287 287 287 287 288 288 288 289 290 290 291 292 293 294 294 294 294 293 293 293 295 295 293 292 293 293 293 293 291 293 294 293 293 293 293 294 294
285 285 286 287 287 287 288 288 288 288 289 289 289 292 294 295 296 295 294 294 294 296 296 294 293 292 292 292 292 291 292 293 293 293 293 293 292 293